Time,TemperatureF,DewpointF,PressureIn,WindDirection,WindDirectionDegrees,WindSpeedMPH,WindSpeedGustMPH,Humidity,HourlyPrecipIn,Conditions,Clouds,dailyrainin,SoftwareType,DateUTC
2013-10-19 00:00:00,43.5,41.3,29.97,SSW,200,0.0,0.0,92,0.00,,CLR,0.00,VWS V14.01,2013-10-19 04:00:00,
2013-10-19 00:01:00,43.5,41.3,29.97,SSW,200,0.0,0.0,92,0.00,,CLR,0.00,VWS V14.01,2013-10-19 04:01:00,
2013-10-19 00:06:00,43.3,41.1,29.97,SSW,200,0.0,0.0,92,0.00,,CLR,0.00,VWS V14.01,2013-10-19 04:06:00,
2013-10-19 00:11:00,43.2,41.0,29.97,SSW,200,0.0,0.0,92,0.00,,CLR,0.00,VWS V14.01,2013-10-19 04:11:00,
2013-10-19 00:15:00,43.1,40.9,29.96,SSW,200,0.0,0.0,92,0.00,,FEW060,0.00,VWS V14.01,2013-10-19 04:15:00,
2013-10-19 00:16:00,43.1,40.9,29.96,SSW,200,0.0,0.0,92,0.00,,CLR,0.00,VWS V14.01,2013-10-19 04:16:00,
2013-10-19 00:21:00,42.9,40.7,29.96,SSW,200,0.0,0.0,92,0.00,,CLR,0.00,VWS V14.01,2013-10-19 04:21:00,
2013-10-19 00:26:00,42.8,40.6,29.96,SSW,200,0.0,0.0,92,0.00,,CLR,0.00,VWS V14.01,2013-10-19 04:26:00,
2013-10-19 00:30:00,42.8,40.6,29.95,SSW,200,0.0,0.0,92,0.00,,FEW060,0.00,VWS V14.01,2013-10-19 04:30:00,
2013-10-19 00:31:00,42.6,40.4,29.95,SSW,200,0.0,0.0,92,0.00,,CLR,0.00,VWS V14.01,2013-10-19 04:31:00,
2013-10-19 00:36:00,42.6,40.4,29.95,SSW,200,0.0,0.0,92,0.00,,CLR,0.00,VWS V14.01,2013-10-19 04:36:00,
2013-10-19 00:41:00,42.6,40.7,29.95,SSW,200,0.0,0.0,93,0.00,,CLR,0.00,VWS V14.01,2013-10-19 04:41:00,
2013-10-19 00:45:00,42.6,40.7,29.95,SSW,200,0.0,0.0,93,0.00,,FEW060,0.00,VWS V14.01,2013-10-19 04:45:00,
2013-10-19 00:46:00,42.6,40.7,29.95,SSW,200,0.0,0.0,93,0.00,,CLR,0.00,VWS V14.01,2013-10-19 04:46:00,
2013-10-19 00:51:00,42.6,40.7,29.95,SSW,200,0.0,0.0,93,0.00,,CLR,0.00,VWS V14.01,2013-10-19 04:51:00,
2013-10-19 00:56:00,42.8,40.9,29.95,SSW,200,0.0,0.0,93,0.00,,CLR,0.00,VWS V14.01,2013-10-19 04:56:00,
2013-10-19 01:00:00,42.6,40.7,29.95,SSW,200,0.0,0.0,93,0.00,,FEW060,0.00,VWS V14.01,2013-10-19 05:00:00,
2013-10-19 01:01:00,42.6,40.7,29.95,SSW,200,0.0,0.0,93,0.00,,CLR,0.00,VWS V14.01,2013-10-19 05:01:00,
2013-10-19 01:06:00,42.3,40.4,29.95,SSW,200,0.0,0.0,93,0.00,,CLR,0.00,VWS V14.01,2013-10-19 05:06:00,
2013-10-19 01:11:00,42.3,40.4,29.95,SSW,200,0.0,0.0,93,0.00,,CLR,0.00,VWS V14.01,2013-10-19 05:11:00,
2013-10-19 01:15:00,42.3,40.4,29.94,SSW,200,0.0,0.0,93,0.00,,FEW060,0.00,VWS V14.01,2013-10-19 05:15:00,
2013-10-19 01:16:00,42.3,40.4,29.94,SSW,200,0.0,0.0,93,0.00,,CLR,0.00,VWS V14.01,2013-10-19 05:16:00,
2013-10-19 01:21:00,42.3,40.4,29.94,SSW,200,0.0,0.0,93,0.00,,CLR,0.00,VWS V14.01,2013-10-19 05:21:00,
2013-10-19 01:26:00,42.3,40.4,29.94,SSW,200,0.0,0.0,93,0.00,,CLR,0.00,VWS V14.01,2013-10-19 05:26:00,
2013-10-19 01:30:00,42.3,40.4,29.94,SSW,200,0.0,0.0,93,0.00,,FEW060,0.00,VWS V14.01,2013-10-19 05:30:00,
2013-10-19 01:31:00,42.3,40.4,29.94,SSW,200,0.0,0.0,93,0.00,,CLR,0.00,VWS V14.01,2013-10-19 05:31:00,
2013-10-19 01:36:00,42.2,40.3,29.94,SSW,200,0.0,0.0,93,0.00,,CLR,0.00,VWS V14.01,2013-10-19 05:36:00,
2013-10-19 01:41:00,42.2,40.3,29.94,SSW,200,0.0,0.0,93,0.00,,CLR,0.00,VWS V14.01,2013-10-19 05:41:00,
2013-10-19 01:45:00,42.2,40.3,29.94,SSW,200,0.0,0.0,93,0.00,,FEW060,0.00,VWS V14.01,2013-10-19 05:45:00,
2013-10-19 01:46:00,42.1,40.2,29.94,SSW,200,0.0,0.0,93,0.00,,CLR,0.00,VWS V14.01,2013-10-19 05:46:00,
2013-10-19 01:51:00,42.1,40.2,29.94,SSW,200,0.0,0.0,93,0.00,,CLR,0.00,VWS V14.01,2013-10-19 05:51:00,
2013-10-19 01:56:00,41.9,40.0,29.94,SSW,200,0.0,0.0,93,0.00,,CLR,0.00,VWS V14.01,2013-10-19 05:56:00,
2013-10-19 02:00:00,41.9,40.3,29.94,SSW,200,0.0,0.0,94,0.00,,FEW060,0.00,VWS V14.01,2013-10-19 06:00:00,
2013-10-19 02:01:00,41.8,39.9,29.94,SSW,200,0.0,0.0,93,0.00,,CLR,0.00,VWS V14.01,2013-10-19 06:01:00,
2013-10-19 02:06:00,41.8,39.9,29.94,SSW,200,0.0,0.0,93,0.00,,CLR,0.00,VWS V14.01,2013-10-19 06:06:00,
2013-10-19 02:11:00,41.8,40.2,29.94,SSW,200,0.0,0.0,94,0.00,,CLR,0.00,VWS V14.01,2013-10-19 06:11:00,
2013-10-19 02:15:00,41.8,40.2,29.94,SSW,200,0.0,0.0,94,0.00,,FEW060,0.00,VWS V14.01,2013-10-19 06:15:00,
2013-10-19 02:16:00,41.8,40.2,29.94,SSW,200,0.0,0.0,94,0.00,,CLR,0.00,VWS V14.01,2013-10-19 06:16:00,
2013-10-19 02:21:00,41.8,40.2,29.94,SSW,200,0.0,0.0,94,0.00,,CLR,0.00,VWS V14.01,2013-10-19 06:21:00,
2013-10-19 02:26:00,41.9,40.3,29.94,SSW,200,0.0,0.0,94,0.00,,CLR,0.00,VWS V14.01,2013-10-19 06:26:00,
2013-10-19 02:30:00,41.9,40.3,29.93,SSW,200,0.0,0.0,94,0.00,,FEW060,0.00,VWS V14.01,2013-10-19 06:30:00,
2013-10-19 02:31:00,41.9,40.3,29.93,SSW,200,0.0,0.0,94,0.00,,CLR,0.00,VWS V14.01,2013-10-19 06:31:00,
2013-10-19 02:36:00,41.9,40.3,29.93,SSW,200,0.0,0.0,94,0.00,,CLR,0.00,VWS V14.01,2013-10-19 06:36:00,
2013-10-19 02:41:00,42.1,40.5,29.93,SSW,200,0.0,0.0,94,0.00,,CLR,0.00,VWS V14.01,2013-10-19 06:41:00,
2013-10-19 02:45:00,42.1,40.5,29.93,SSW,200,0.0,0.0,94,0.00,,FEW060,0.00,VWS V14.01,2013-10-19 06:45:00,
2013-10-19 02:46:00,41.9,40.3,29.93,SSW,200,0.0,0.0,94,0.00,,CLR,0.00,VWS V14.01,2013-10-19 06:46:00,
2013-10-19 02:51:00,41.9,40.3,29.93,SSW,200,0.0,0.0,94,0.00,,CLR,0.00,VWS V14.01,2013-10-19 06:51:00,
2013-10-19 02:56:00,41.9,40.3,29.93,SSW,200,0.0,0.0,94,0.00,,CLR,0.00,VWS V14.01,2013-10-19 06:56:00,
2013-10-19 03:00:00,41.9,40.3,29.93,SSW,200,0.0,0.0,94,0.00,,FEW060,0.00,VWS V14.01,2013-10-19 07:00:00,
2013-10-19 03:01:00,42.1,40.8,29.93,SSW,200,0.0,0.0,95,0.00,,FEW060,0.00,VWS V14.01,2013-10-19 07:01:00,
2013-10-19 03:06:00,42.2,40.9,29.93,SSW,200,0.0,0.0,95,0.00,,FEW060,0.00,VWS V14.01,2013-10-19 07:06:00,
2013-10-19 03:11:00,42.3,41.0,29.93,SSW,200,0.0,0.0,95,0.00,,FEW060,0.00,VWS V14.01,2013-10-19 07:11:00,
2013-10-19 03:15:00,42.9,41.6,29.93,NNW,343,2.0,6.0,95,0.00,,FEW060,0.00,VWS V14.01,2013-10-19 07:15:00,
2013-10-19 03:16:00,43.6,42.3,29.93,NNW,346,0.0,6.0,95,0.00,,FEW060,0.00,VWS V14.01,2013-10-19 07:16:00,
2013-10-19 03:21:00,44.2,42.9,29.93,NNW,346,0.0,5.0,95,0.00,,FEW060,0.00,VWS V14.01,2013-10-19 07:21:00,
2013-10-19 03:26:00,44.5,43.2,29.93,NNW,346,0.0,1.0,95,0.00,,FEW060,0.00,VWS V14.01,2013-10-19 07:26:00,
2013-10-19 03:30:00,41.9,40.3,29.93,SSW,200,0.0,0.0,94,0.00,,CLR,0.00,VWS V14.01,2013-10-19 07:30:00,
2013-10-19 03:31:00,44.6,43.3,29.92,NNW,346,0.0,0.0,95,0.00,,FEW060,0.00,VWS V14.01,2013-10-19 07:31:00,
2013-10-19 03:36:00,44.8,43.5,29.92,NNW,346,0.0,0.0,95,0.00,,FEW060,0.00,VWS V14.01,2013-10-19 07:36:00,
2013-10-19 03:41:00,44.8,43.2,29.92,NNW,346,0.0,0.0,94,0.00,,FEW060,0.00,VWS V14.01,2013-10-19 07:41:00,
2013-10-19 03:45:00,42.1,40.5,29.93,SSW,200,0.0,0.0,94,0.00,,CLR,0.00,VWS V14.01,2013-10-19 07:45:00,
2013-10-19 03:46:00,44.9,43.3,29.92,NNW,346,0.0,0.0,94,0.00,,FEW060,0.00,VWS V14.01,2013-10-19 07:46:00,
2013-10-19 03:51:00,44.9,43.3,29.92,NNW,346,0.0,0.0,94,0.00,,FEW060,0.00,VWS V14.01,2013-10-19 07:51:00,
2013-10-19 03:56:00,45.2,43.6,29.92,NNW,346,0.0,0.0,94,0.00,,FEW060,0.00,VWS V14.01,2013-10-19 07:56:00,
2013-10-19 04:00:00,41.9,40.3,29.93,SSW,200,0.0,0.0,94,0.00,,CLR,0.00,VWS V14.01,2013-10-19 08:00:00,
2013-10-19 04:01:00,45.5,43.9,29.91,WNW,296,0.0,0.0,94,0.00,,FEW060,0.00,VWS V14.01,2013-10-19 08:01:00,
2013-10-19 04:06:00,45.7,43.8,29.91,WNW,296,0.0,0.0,93,0.00,,FEW060,0.00,VWS V14.01,2013-10-19 08:06:00,
2013-10-19 04:11:00,45.7,43.8,29.91,WNW,296,0.0,0.0,93,0.00,,FEW060,0.00,VWS V14.01,2013-10-19 08:11:00,
2013-10-19 04:15:00,42.9,41.6,29.93,NNW,343,2.0,6.0,95,0.00,,CLR,0.00,VWS V14.01,2013-10-19 08:15:00,
2013-10-19 04:16:00,45.8,43.9,29.91,WNW,296,0.0,0.0,93,0.00,,FEW060,0.00,VWS V14.01,2013-10-19 08:16:00,
2013-10-19 04:21:00,45.8,43.9,29.91,WNW,296,0.0,0.0,93,0.00,,FEW060,0.00,VWS V14.01,2013-10-19 08:21:00,
2013-10-19 04:26:00,45.7,43.8,29.91,WNW,296,0.0,0.0,93,0.00,,FEW060,0.00,VWS V14.01,2013-10-19 08:26:00,
2013-10-19 04:30:00,44.6,43.3,29.92,NNW,346,0.0,0.0,95,0.00,,CLR,0.00,VWS V14.01,2013-10-19 08:30:00,
2013-10-19 04:31:00,45.5,43.3,29.91,WNW,296,0.0,0.0,92,0.00,,FEW060,0.00,VWS V14.01,2013-10-19 08:31:00,
2013-10-19 04:36:00,45.2,43.0,29.91,WNW,296,0.0,0.0,92,0.00,,FEW060,0.00,VWS V14.01,2013-10-19 08:36:00,
2013-10-19 04:41:00,44.9,42.7,29.91,WNW,296,0.0,0.0,92,0.00,,FEW060,0.00,VWS V14.01,2013-10-19 08:41:00,
2013-10-19 04:45:00,44.9,43.3,29.92,NNW,346,0.0,0.0,94,0.00,,CLR,0.00,VWS V14.01,2013-10-19 08:45:00,
2013-10-19 04:46:00,44.6,42.4,29.91,WNW,295,0.0,0.0,92,0.00,,FEW060,0.00,VWS V14.01,2013-10-19 08:46:00,
2013-10-19 04:51:00,44.6,42.7,29.91,WNW,295,0.0,0.0,93,0.00,,FEW060,0.00,VWS V14.01,2013-10-19 08:51:00,
2013-10-19 04:56:00,44.6,42.7,29.91,WNW,295,0.0,0.0,93,0.00,,FEW060,0.00,VWS V14.01,2013-10-19 08:56:00,
2013-10-19 05:00:00,45.4,43.8,29.91,WNW,296,0.0,0.0,94,0.00,,CLR,0.00,VWS V14.01,2013-10-19 09:00:00,
2013-10-19 05:01:00,44.8,42.9,29.90,WNW,295,0.0,0.0,93,0.00,,BKN055,0.00,VWS V14.01,2013-10-19 09:01:00,
2013-10-19 05:06:00,44.8,42.9,29.90,WNW,295,0.0,0.0,93,0.00,,BKN055,0.00,VWS V14.01,2013-10-19 09:06:00,
2013-10-19 05:11:00,44.8,42.9,29.90,WNW,295,0.0,0.0,93,0.00,,BKN055,0.00,VWS V14.01,2013-10-19 09:11:00,
2013-10-19 05:15:00,45.8,43.9,29.91,WNW,296,0.0,0.0,93,0.00,,CLR,0.00,VWS V14.01,2013-10-19 09:15:00,
2013-10-19 05:16:00,44.9,43.0,29.90,WNW,295,0.0,0.0,93,0.00,,BKN055,0.00,VWS V14.01,2013-10-19 09:16:00,
2013-10-19 05:21:00,44.9,43.0,29.90,WNW,295,0.0,0.0,93,0.00,,BKN055,0.00,VWS V14.01,2013-10-19 09:21:00,
2013-10-19 05:26:00,45.1,43.2,29.90,WNW,295,0.0,0.0,93,0.00,,BKN055,0.00,VWS V14.01,2013-10-19 09:26:00,
2013-10-19 05:30:00,45.7,43.5,29.91,WNW,296,0.0,0.0,92,0.00,,CLR,0.00,VWS V14.01,2013-10-19 09:30:00,
2013-10-19 05:31:00,45.1,43.2,29.89,WNW,295,0.0,0.0,93,0.00,,BKN055,0.00,VWS V14.01,2013-10-19 09:31:00,
2013-10-19 05:36:00,45.2,43.3,29.89,WNW,295,0.0,0.0,93,0.00,,BKN055,0.00,VWS V14.01,2013-10-19 09:36:00,
2013-10-19 05:41:00,45.2,43.3,29.89,WNW,295,0.0,0.0,93,0.00,,BKN055,0.00,VWS V14.01,2013-10-19 09:41:00,
2013-10-19 05:45:00,44.8,42.6,29.91,WNW,295,0.0,0.0,92,0.00,,CLR,0.00,VWS V14.01,2013-10-19 09:45:00,
2013-10-19 05:46:00,45.4,43.5,29.89,WNW,295,0.0,0.0,93,0.00,,BKN055,0.00,VWS V14.01,2013-10-19 09:46:00,
2013-10-19 05:51:00,45.4,43.5,29.89,WNW,295,0.0,0.0,93,0.00,,BKN055,0.00,VWS V14.01,2013-10-19 09:51:00,
2013-10-19 05:56:00,45.4,43.5,29.89,WNW,295,0.0,0.0,93,0.00,,BKN055,0.00,VWS V14.01,2013-10-19 09:56:00,
2013-10-19 06:00:00,44.6,42.7,29.90,WNW,295,0.0,0.0,93,0.00,,CLR,0.00,VWS V14.01,2013-10-19 10:00:00,
2013-10-19 06:01:00,45.4,43.5,29.89,WNW,295,0.0,0.0,93,0.00,,BKN060,0.00,VWS V14.01,2013-10-19 10:01:00,
2013-10-19 06:06:00,45.4,43.5,29.89,WNW,295,0.0,0.0,93,0.00,,BKN060,0.00,VWS V14.01,2013-10-19 10:06:00,
2013-10-19 06:11:00,45.4,43.5,29.89,WNW,295,0.0,0.0,93,0.00,,BKN060,0.00,VWS V14.01,2013-10-19 10:11:00,
2013-10-19 06:15:00,44.9,43.0,29.90,WNW,295,0.0,0.0,93,0.00,,CLR,0.00,VWS V14.01,2013-10-19 10:15:00,
2013-10-19 06:16:00,45.2,43.3,29.88,WNW,295,0.0,0.0,93,0.00,,BKN060,0.00,VWS V14.01,2013-10-19 10:16:00,
2013-10-19 06:21:00,45.2,43.3,29.88,WNW,295,0.0,0.0,93,0.00,,BKN060,0.00,VWS V14.01,2013-10-19 10:21:00,
2013-10-19 06:26:00,45.1,43.2,29.88,WNW,294,0.0,0.0,93,0.00,,BKN060,0.00,VWS V14.01,2013-10-19 10:26:00,
2013-10-19 06:30:00,45.1,43.2,29.89,WNW,295,0.0,0.0,93,0.00,,CLR,0.00,VWS V14.01,2013-10-19 10:30:00,
2013-10-19 06:31:00,45.1,43.2,29.88,WNW,294,0.0,0.0,93,0.00,,BKN060,0.00,VWS V14.01,2013-10-19 10:31:00,
2013-10-19 06:36:00,45.1,43.2,29.88,WNW,294,0.0,0.0,93,0.00,,BKN060,0.00,VWS V14.01,2013-10-19 10:36:00,
2013-10-19 06:41:00,45.1,43.2,29.88,WNW,294,0.0,0.0,93,0.00,,BKN060,0.00,VWS V14.01,2013-10-19 10:41:00,
2013-10-19 06:45:00,45.4,43.5,29.89,WNW,295,0.0,0.0,93,0.00,,CLR,0.00,VWS V14.01,2013-10-19 10:45:00,
2013-10-19 06:46:00,44.9,43.0,29.86,WNW,294,0.0,0.0,93,0.00,,BKN060,0.00,VWS V14.01,2013-10-19 10:46:00,
2013-10-19 06:51:00,44.9,42.7,29.86,WNW,294,0.0,0.0,92,0.00,,BKN060,0.00,VWS V14.01,2013-10-19 10:51:00,
2013-10-19 06:56:00,44.8,42.6,29.86,WNW,294,0.0,0.0,92,0.00,,BKN060,0.00,VWS V14.01,2013-10-19 10:56:00,
2013-10-19 07:00:00,45.4,43.5,29.89,WNW,295,0.0,0.0,93,0.00,,CLR,0.00,VWS V14.01,2013-10-19 11:00:00,
2013-10-19 07:01:00,44.8,42.9,29.86,WNW,294,0.0,0.0,93,0.00,,FEW070,0.00,VWS V14.01,2013-10-19 11:01:00,
2013-10-19 07:06:00,44.9,43.0,29.86,WNW,294,0.0,0.0,93,0.00,,FEW070,0.00,VWS V14.01,2013-10-19 11:06:00,
2013-10-19 07:11:00,44.9,43.0,29.86,WNW,294,0.0,0.0,93,0.00,,FEW070,0.00,VWS V14.01,2013-10-19 11:11:00,
2013-10-19 07:15:00,45.4,43.5,29.88,WNW,295,0.0,0.0,93,0.00,,CLR,0.00,VWS V14.01,2013-10-19 11:15:00,
2013-10-19 07:16:00,44.9,42.7,29.86,WNW,294,0.0,0.0,92,0.00,,FEW070,0.00,VWS V14.01,2013-10-19 11:16:00,
2013-10-19 07:21:00,44.9,42.7,29.86,WNW,294,0.0,0.0,92,0.00,,FEW070,0.00,VWS V14.01,2013-10-19 11:21:00,
2013-10-19 07:26:00,44.9,43.0,29.86,WNW,294,0.0,0.0,93,0.00,,FEW070,0.00,VWS V14.01,2013-10-19 11:26:00,
2013-10-19 07:30:00,45.1,43.2,29.88,WNW,294,0.0,0.0,93,0.00,,CLR,0.00,VWS V14.01,2013-10-19 11:30:00,
2013-10-19 07:31:00,44.9,43.0,29.86,WNW,294,0.0,0.0,93,0.00,,FEW070,0.00,VWS V14.01,2013-10-19 11:31:00,
2013-10-19 07:36:00,45.1,43.2,29.86,West,281,0.0,0.0,93,0.00,,FEW070,0.00,VWS V14.01,2013-10-19 11:36:00,
2013-10-19 07:41:00,44.9,42.7,29.86,West,281,0.0,0.0,92,0.00,,FEW070,0.00,VWS V14.01,2013-10-19 11:41:00,
2013-10-19 07:45:00,45.1,43.2,29.86,WNW,294,0.0,0.0,93,0.00,,CLR,0.00,VWS V14.01,2013-10-19 11:45:00,
2013-10-19 07:46:00,44.9,42.7,29.86,West,281,0.0,0.0,92,0.00,,FEW070,0.00,VWS V14.01,2013-10-19 11:46:00,
2013-10-19 07:51:00,44.9,42.7,29.86,West,281,0.0,0.0,92,0.00,,FEW070,0.00,VWS V14.01,2013-10-19 11:51:00,
2013-10-19 07:56:00,44.9,43.0,29.86,West,281,0.0,0.0,93,0.00,,FEW070,0.00,VWS V14.01,2013-10-19 11:56:00,
2013-10-19 08:00:00,44.8,42.9,29.86,WNW,294,0.0,0.0,93,0.00,,CLR,0.00,VWS V14.01,2013-10-19 12:00:00,
2013-10-19 08:01:00,45.1,43.2,29.86,West,277,0.0,0.0,93,0.00,,BKN110,0.00,VWS V14.01,2013-10-19 12:01:00,
2013-10-19 08:06:00,45.2,43.3,29.86,West,277,0.0,0.0,93,0.00,,BKN110,0.00,VWS V14.01,2013-10-19 12:06:00,
2013-10-19 08:11:00,45.2,43.3,29.86,West,277,0.0,0.0,93,0.00,,BKN110,0.00,VWS V14.01,2013-10-19 12:11:00,
2013-10-19 08:15:00,44.9,43.0,29.86,WNW,294,0.0,0.0,93,0.00,,CLR,0.00,VWS V14.01,2013-10-19 12:15:00,
2013-10-19 08:16:00,45.4,43.5,29.86,West,277,0.0,0.0,93,0.00,,BKN110,0.00,VWS V14.01,2013-10-19 12:16:00,
2013-10-19 08:21:00,45.4,43.5,29.86,West,277,0.0,0.0,93,0.00,,BKN110,0.00,VWS V14.01,2013-10-19 12:21:00,
2013-10-19 08:26:00,45.5,43.6,29.86,West,265,0.0,1.0,93,0.00,,BKN110,0.00,VWS V14.01,2013-10-19 12:26:00,
2013-10-19 08:30:00,44.9,43.0,29.86,WNW,294,0.0,0.0,93,0.00,,CLR,0.00,VWS V14.01,2013-10-19 12:30:00,
2013-10-19 08:31:00,45.8,43.9,29.85,West,261,0.0,4.0,93,0.00,,BKN110,0.00,VWS V14.01,2013-10-19 12:31:00,
2013-10-19 08:36:00,46.0,44.1,29.85,West,261,0.0,0.0,93,0.00,,BKN110,0.00,VWS V14.01,2013-10-19 12:36:00,
2013-10-19 08:41:00,46.1,44.2,29.85,West,261,0.0,0.0,93,0.00,,BKN110,0.00,VWS V14.01,2013-10-19 12:41:00,
2013-10-19 08:45:00,44.9,42.7,29.86,West,281,0.0,0.0,92,0.00,,CLR,0.00,VWS V14.01,2013-10-19 12:45:00,
2013-10-19 08:46:00,46.2,44.0,29.85,SSW,209,1.0,3.0,92,0.00,,BKN110,0.00,VWS V14.01,2013-10-19 12:46:00,
2013-10-19 08:51:00,46.2,44.0,29.85,SSW,208,0.0,3.0,92,0.00,,BKN110,0.00,VWS V14.01,2013-10-19 12:51:00,
2013-10-19 08:56:00,46.5,44.3,29.85,SSW,208,1.0,3.0,92,0.00,,BKN110,0.00,VWS V14.01,2013-10-19 12:56:00,
2013-10-19 09:00:00,45.1,43.2,29.86,West,281,0.0,0.0,93,0.00,,CLR,0.00,VWS V14.01,2013-10-19 13:00:00,
2013-10-19 09:01:00,46.7,44.5,29.85,SSW,206,0.0,2.0,92,0.00,,OVC100,0.00,VWS V14.01,2013-10-19 13:01:00,
2013-10-19 09:06:00,46.7,44.5,29.85,SSW,206,0.0,2.0,92,0.00,,OVC100,0.00,VWS V14.01,2013-10-19 13:06:00,
2013-10-19 09:11:00,46.8,44.3,29.85,SSW,206,0.0,0.0,91,0.00,,OVC100,0.00,VWS V14.01,2013-10-19 13:11:00,
2013-10-19 09:15:00,45.2,43.3,29.86,West,277,0.0,0.0,93,0.00,,CLR,0.00,VWS V14.01,2013-10-19 13:15:00,
2013-10-19 09:16:00,47.0,44.5,29.85,SSW,205,0.0,0.0,91,0.00,,OVC100,0.00,VWS V14.01,2013-10-19 13:16:00,
2013-10-19 09:21:00,47.3,44.8,29.85,SSW,196,0.0,4.0,91,0.00,,OVC100,0.00,VWS V14.01,2013-10-19 13:21:00,
2013-10-19 09:26:00,47.4,44.9,29.85,SSW,196,0.0,4.0,91,0.00,,OVC100,0.00,VWS V14.01,2013-10-19 13:26:00,
2013-10-19 09:30:00,45.7,43.8,29.85,West,261,0.0,4.0,93,0.00,,CLR,0.00,VWS V14.01,2013-10-19 13:30:00,
2013-10-19 09:31:00,47.7,45.2,29.85,SSW,192,0.0,0.0,91,0.00,,OVC100,0.00,VWS V14.01,2013-10-19 13:31:00,
2013-10-19 09:36:00,47.9,45.1,29.85,South,188,2.0,4.0,90,0.00,,OVC100,0.00,VWS V14.01,2013-10-19 13:36:00,
2013-10-19 09:41:00,48.2,45.4,29.85,SSW,193,2.0,4.0,90,0.00,,OVC100,0.00,VWS V14.01,2013-10-19 13:41:00,
2013-10-19 09:45:00,46.1,43.9,29.85,West,261,0.0,0.0,92,0.00,,CLR,0.00,VWS V14.01,2013-10-19 13:45:00,
2013-10-19 09:46:00,48.3,45.5,29.85,SSW,200,0.0,4.0,90,0.00,,OVC100,0.00,VWS V14.01,2013-10-19 13:46:00,
2013-10-19 09:51:00,48.6,45.5,29.85,South,182,2.0,4.0,89,0.00,,OVC100,0.00,VWS V14.01,2013-10-19 13:51:00,
2013-10-19 09:56:00,48.9,45.5,29.85,SSW,206,0.0,7.0,88,0.00,,OVC100,0.00,VWS V14.01,2013-10-19 13:56:00,
2013-10-19 10:00:00,46.5,44.3,29.85,SSW,209,0.0,2.0,92,0.00,,CLR,0.00,VWS V14.01,2013-10-19 14:00:00,
2013-10-19 10:01:00,48.9,45.5,29.85,SSW,206,2.0,7.0,88,0.00,,BKN050,0.00,VWS V14.01,2013-10-19 14:01:00,
2013-10-19 10:06:00,49.1,45.4,29.85,South,188,0.0,4.0,87,0.00,,BKN050,0.00,VWS V14.01,2013-10-19 14:06:00,
2013-10-19 10:11:00,49.2,45.5,29.85,ESE,110,0.0,5.0,87,0.00,,BKN050,0.00,VWS V14.01,2013-10-19 14:11:00,
2013-10-19 10:15:00,47.0,44.5,29.85,SSW,205,0.0,0.0,91,0.00,,CLR,0.00,VWS V14.01,2013-10-19 14:15:00,
2013-10-19 10:16:00,49.4,45.7,29.84,SE,128,0.0,2.0,87,0.00,,BKN050,0.00,VWS V14.01,2013-10-19 14:16:00,
2013-10-19 10:21:00,49.6,45.9,29.84,SSE,152,0.0,4.0,87,0.00,,BKN050,0.00,VWS V14.01,2013-10-19 14:21:00,
2013-10-19 10:26:00,49.9,46.2,29.84,SSW,196,0.0,4.0,87,0.00,,BKN050,0.00,VWS V14.01,2013-10-19 14:26:00,
2013-10-19 10:30:00,47.6,45.1,29.85,SSW,192,0.0,1.0,91,0.00,,CLR,0.00,VWS V14.01,2013-10-19 14:30:00,
2013-10-19 10:31:00,50.1,46.4,29.83,SSE,164,0.0,3.0,87,0.00,,BKN050,0.00,VWS V14.01,2013-10-19 14:31:00,
2013-10-19 10:36:00,50.2,46.5,29.83,South,182,0.0,6.0,87,0.00,,BKN050,0.00,VWS V14.01,2013-10-19 14:36:00,
2013-10-19 10:41:00,50.4,46.7,29.83,South,182,0.0,6.0,87,0.00,,BKN050,0.00,VWS V14.01,2013-10-19 14:41:00,
2013-10-19 10:45:00,48.3,45.5,29.85,SSW,192,0.0,4.0,90,0.00,,CLR,0.00,VWS V14.01,2013-10-19 14:45:00,
2013-10-19 10:46:00,50.5,46.8,29.84,South,191,0.0,5.0,87,0.00,,BKN050,0.00,VWS V14.01,2013-10-19 14:46:00,
2013-10-19 10:51:00,50.8,47.1,29.84,South,191,0.0,3.0,87,0.00,,BKN050,0.00,VWS V14.01,2013-10-19 14:51:00,
2013-10-19 10:56:00,51.4,47.7,29.84,SSW,192,1.0,2.0,87,0.00,,BKN050,0.00,VWS V14.01,2013-10-19 14:56:00,
2013-10-19 11:00:00,48.9,45.5,29.85,SSE,168,1.0,7.0,88,0.00,,CLR,0.00,VWS V14.01,2013-10-19 15:00:00,
2013-10-19 11:01:00,51.7,47.7,29.83,SSE,157,0.0,2.0,86,0.00,,OVC070,0.00,VWS V14.01,2013-10-19 15:01:00,
2013-10-19 11:06:00,51.7,47.3,29.83,SSE,161,0.0,1.0,85,0.00,,OVC070,0.00,VWS V14.01,2013-10-19 15:06:00,
2013-10-19 11:11:00,51.9,47.5,29.83,SSE,161,0.0,0.0,85,0.00,,OVC070,0.00,VWS V14.01,2013-10-19 15:11:00,
2013-10-19 11:15:00,49.4,45.7,29.84,SE,128,0.0,5.0,87,0.00,,CLR,0.00,VWS V14.01,2013-10-19 15:15:00,
2013-10-19 11:16:00,52.0,47.6,29.83,SSE,161,0.0,3.0,85,0.00,,OVC070,0.00,VWS V14.01,2013-10-19 15:16:00,
2013-10-19 11:21:00,52.2,47.8,29.83,SSE,161,0.0,0.0,85,0.00,,OVC070,0.00,VWS V14.01,2013-10-19 15:21:00,
2013-10-19 11:26:00,52.2,47.5,29.83,SW,226,2.0,5.0,84,0.00,,OVC070,0.00,VWS V14.01,2013-10-19 15:26:00,
2013-10-19 11:30:00,50.1,46.4,29.83,SSW,202,2.0,3.0,87,0.00,,CLR,0.00,VWS V14.01,2013-10-19 15:30:00,
2013-10-19 11:31:00,52.3,47.3,29.83,SW,229,6.0,11.0,83,0.00,,OVC070,0.00,VWS V14.01,2013-10-19 15:31:00,
2013-10-19 11:36:00,52.5,46.8,29.83,SW,219,0.0,11.0,81,0.00,,OVC070,0.00,VWS V14.01,2013-10-19 15:36:00,
2013-10-19 11:41:00,52.5,47.2,29.83,SSW,199,0.0,7.0,82,0.00,,OVC070,0.00,VWS V14.01,2013-10-19 15:41:00,
2013-10-19 11:45:00,50.5,46.8,29.84,SSW,192,0.0,5.0,87,0.00,,CLR,0.00,VWS V14.01,2013-10-19 15:45:00,
2013-10-19 11:46:00,52.5,46.8,29.82,SSW,200,0.0,12.0,81,0.00,,OVC070,0.00,VWS V14.01,2013-10-19 15:46:00,
2013-10-19 11:51:00,52.3,47.0,29.82,WSW,253,3.0,7.0,82,0.00,,OVC070,0.00,VWS V14.01,2013-10-19 15:51:00,
2013-10-19 11:56:00,52.2,47.2,29.82,SW,223,0.0,8.0,83,0.00,,OVC070,0.00,VWS V14.01,2013-10-19 15:56:00,
2013-10-19 12:00:00,51.6,47.9,29.83,SSW,205,0.0,2.0,87,0.00,,CLR,0.00,VWS V14.01,2013-10-19 16:00:00,
2013-10-19 12:01:00,52.0,47.3,29.82,SW,224,0.0,5.0,84,0.00,,-RA,0.00,VWS V14.01,2013-10-19 16:01:00,
2013-10-19 12:06:00,51.9,47.2,29.82,SW,219,0.0,6.0,84,0.00,,-RA,0.00,VWS V14.01,2013-10-19 16:06:00,
2013-10-19 12:11:00,51.7,47.3,29.82,SW,226,3.0,5.0,85,0.00,,-RA,0.00,VWS V14.01,2013-10-19 16:11:00,
2013-10-19 12:15:00,51.9,47.2,29.83,SSE,161,0.0,3.0,84,0.00,,CLR,0.00,VWS V14.01,2013-10-19 16:15:00,
2013-10-19 12:16:00,51.7,47.3,29.81,West,261,0.0,7.0,85,0.00,,-RA,0.00,VWS V14.01,2013-10-19 16:16:00,
2013-10-19 12:21:00,51.6,47.2,29.81,SSW,213,0.0,7.0,85,0.00,,-RA,0.00,VWS V14.01,2013-10-19 16:21:00,
2013-10-19 12:26:00,51.6,47.6,29.81,SSW,213,0.0,3.0,86,0.00,,-RA,0.00,VWS V14.01,2013-10-19 16:26:00,
2013-10-19 12:30:00,52.3,47.3,29.83,SSW,200,0.0,11.0,83,0.00,,CLR,0.00,VWS V14.01,2013-10-19 16:30:00,
2013-10-19 12:31:00,51.7,48.0,29.81,SSW,213,4.0,4.0,87,0.01,,-RA,0.01,VWS V14.01,2013-10-19 16:31:00,
2013-10-19 12:36:00,51.7,48.3,29.81,SSW,208,0.0,5.0,88,0.01,,-RA,0.01,VWS V14.01,2013-10-19 16:36:00,
2013-10-19 12:41:00,51.7,48.0,29.81,SSW,205,2.0,9.0,87,0.01,,-RA,0.01,VWS V14.01,2013-10-19 16:41:00,
2013-10-19 12:45:00,52.5,46.8,29.82,SSW,200,0.0,12.0,81,0.00,,CLR,0.00,VWS V14.01,2013-10-19 16:45:00,
2013-10-19 12:46:00,51.4,47.7,29.80,SW,217,0.0,6.0,87,0.01,,-RA,0.01,VWS V14.01,2013-10-19 16:46:00,
2013-10-19 12:51:00,51.4,48.0,29.80,SW,215,2.0,3.0,88,0.01,,-RA,0.01,VWS V14.01,2013-10-19 16:51:00,
2013-10-19 12:56:00,51.4,48.3,29.80,SW,215,0.0,3.0,89,0.02,,-RA,0.02,VWS V14.01,2013-10-19 16:56:00,
2013-10-19 13:00:00,52.0,47.3,29.82,SW,223,0.0,5.0,84,0.00,,CLR,0.00,VWS V14.01,2013-10-19 17:00:00,
2013-10-19 13:01:00,51.6,48.8,29.79,SSW,202,0.0,1.0,90,0.02,,-RA,0.02,VWS V14.01,2013-10-19 17:01:00,
2013-10-19 13:06:00,51.3,48.5,29.79,SW,230,0.0,8.0,90,0.04,,-RA,0.04,VWS V14.01,2013-10-19 17:06:00,
2013-10-19 13:11:00,51.0,48.2,29.79,SW,232,0.0,6.0,90,0.04,,-RA,0.04,VWS V14.01,2013-10-19 17:11:00,
2013-10-19 13:15:00,51.7,47.3,29.81,SSW,212,0.0,7.0,85,0.00,,CLR,0.00,VWS V14.01,2013-10-19 17:15:00,
2013-10-19 13:16:00,50.8,48.3,29.81,SW,216,0.0,3.0,91,0.05,,RA,0.05,VWS V14.01,2013-10-19 17:16:00,
2013-10-19 13:21:00,50.7,48.2,29.81,SSW,209,1.0,8.0,91,0.06,,RA,0.06,VWS V14.01,2013-10-19 17:21:00,
2013-10-19 13:26:00,50.5,48.0,29.81,WSW,248,3.0,7.0,91,0.06,,RA,0.06,VWS V14.01,2013-10-19 17:26:00,
2013-10-19 13:30:00,51.7,48.0,29.81,SSW,213,0.0,3.0,87,0.01,,CLR,0.01,VWS V14.01,2013-10-19 17:30:00,
2013-10-19 13:31:00,50.4,48.2,29.81,WSW,244,3.0,5.0,92,0.06,,RA,0.07,VWS V14.01,2013-10-19 17:31:00,
2013-10-19 13:36:00,50.4,48.2,29.81,West,263,0.0,6.0,92,0.07,,RA,0.08,VWS V14.01,2013-10-19 17:36:00,
2013-10-19 13:41:00,50.4,48.5,29.81,West,264,2.0,6.0,93,0.07,,RA,0.08,VWS V14.01,2013-10-19 17:41:00,
2013-10-19 13:45:00,51.6,47.9,29.80,SW,217,5.0,9.0,87,0.01,,CLR,0.01,VWS V14.01,2013-10-19 17:45:00,
2013-10-19 13:46:00,50.2,48.3,29.81,WNW,291,2.0,6.0,93,0.08,,-RA,0.09,VWS V14.01,2013-10-19 17:46:00,
2013-10-19 13:51:00,49.5,47.0,29.81,NNW,329,1.0,11.0,91,0.08,,-RA,0.09,VWS V14.01,2013-10-19 17:51:00,
2013-10-19 13:56:00,47.7,45.2,29.81,NNW,333,2.0,10.0,91,0.08,,-RA,0.09,VWS V14.01,2013-10-19 17:56:00,
2013-10-19 14:00:00,51.6,48.8,29.79,SSW,202,0.0,1.0,90,0.02,,CLR,0.02,VWS V14.01,2013-10-19 18:00:00,
2013-10-19 14:01:00,46.7,43.9,29.83,SW,220,0.0,13.0,90,0.07,,-RA,0.09,VWS V14.01,2013-10-19 18:01:00,
2013-10-19 14:06:00,46.1,43.6,29.83,NNW,336,6.0,7.0,91,0.07,,-RA,0.09,VWS V14.01,2013-10-19 18:06:00,
2013-10-19 14:11:00,46.1,43.6,29.83,NW,318,0.0,6.0,91,0.07,,-RA,0.09,VWS V14.01,2013-10-19 18:11:00,
2013-10-19 14:15:00,50.8,48.0,29.81,SW,216,0.0,3.0,90,0.05,,CLR,0.05,VWS V14.01,2013-10-19 18:15:00,
2013-10-19 14:16:00,46.1,43.6,29.82,WNW,296,2.0,7.0,91,0.04,,-RA,0.09,VWS V14.01,2013-10-19 18:16:00,
2013-10-19 14:21:00,46.0,43.5,29.82,WNW,299,0.0,3.0,91,0.05,,-RA,0.10,VWS V14.01,2013-10-19 18:21:00,
2013-10-19 14:26:00,45.8,43.3,29.82,NNW,339,0.0,4.0,91,0.05,,-RA,0.10,VWS V14.01,2013-10-19 18:26:00,
2013-10-19 14:30:00,50.4,48.2,29.81,SW,229,0.0,7.0,92,0.07,,CLR,0.07,VWS V14.01,2013-10-19 18:30:00,
2013-10-19 14:31:00,46.0,43.5,29.82,West,270,0.0,0.0,91,0.03,,-RA,0.10,VWS V14.01,2013-10-19 18:31:00,
2013-10-19 14:36:00,46.0,43.5,29.82,West,268,0.0,6.0,91,0.03,,-RA,0.10,VWS V14.01,2013-10-19 18:36:00,
2013-10-19 14:41:00,46.0,43.8,29.82,West,275,2.0,3.0,92,0.03,,-RA,0.10,VWS V14.01,2013-10-19 18:41:00,
2013-10-19 14:45:00,50.2,48.3,29.81,NNW,328,0.0,6.0,93,0.08,,CLR,0.09,VWS V14.01,2013-10-19 18:45:00,
2013-10-19 14:46:00,45.8,43.3,29.84,WNW,291,5.0,7.0,91,0.01,,-RA,0.10,VWS V14.01,2013-10-19 18:46:00,
2013-10-19 14:51:00,45.7,43.2,29.84,NW,315,1.0,7.0,91,0.01,,-RA,0.10,VWS V14.01,2013-10-19 18:51:00,
2013-10-19 14:56:00,45.4,42.9,29.84,NW,318,0.0,10.0,91,0.01,,-RA,0.10,VWS V14.01,2013-10-19 18:56:00,
2013-10-19 15:00:00,47.1,44.6,29.83,North,0,8.0,10.0,91,0.08,,CLR,0.09,VWS V14.01,2013-10-19 19:00:00,
2013-10-19 15:01:00,45.2,42.7,29.85,North,353,0.0,6.0,91,0.01,,OVC039,0.10,VWS V14.01,2013-10-19 19:01:00,
2013-10-19 15:06:00,45.2,42.7,29.85,West,274,0.0,3.0,91,0.01,,OVC039,0.10,VWS V14.01,2013-10-19 19:06:00,
2013-10-19 15:11:00,45.2,42.7,29.85,WNW,295,0.0,5.0,91,0.01,,OVC039,0.10,VWS V14.01,2013-10-19 19:11:00,
2013-10-19 15:15:00,46.1,43.6,29.82,WNW,292,3.0,7.0,91,0.07,,CLR,0.09,VWS V14.01,2013-10-19 19:15:00,
2013-10-19 15:16:00,45.2,42.7,29.85,West,281,0.0,0.0,91,0.01,,OVC039,0.10,VWS V14.01,2013-10-19 19:16:00,
2013-10-19 15:21:00,45.2,42.7,29.85,North,352,0.0,7.0,91,0.01,,OVC039,0.10,VWS V14.01,2013-10-19 19:21:00,
2013-10-19 15:26:00,45.2,42.7,29.85,WNW,292,0.0,7.0,91,0.01,,OVC039,0.10,VWS V14.01,2013-10-19 19:26:00,
2013-10-19 15:30:00,45.8,43.3,29.82,West,270,0.0,0.0,91,0.05,,CLR,0.10,VWS V14.01,2013-10-19 19:30:00,
2013-10-19 15:31:00,45.1,42.6,29.85,WSW,253,0.0,6.0,91,0.00,,OVC039,0.10,VWS V14.01,2013-10-19 19:31:00,
2013-10-19 15:36:00,45.1,42.6,29.85,WNW,284,0.0,7.0,91,0.00,,OVC039,0.10,VWS V14.01,2013-10-19 19:36:00,
2013-10-19 15:41:00,45.4,43.2,29.85,WNW,284,0.0,1.0,92,0.00,,OVC039,0.10,VWS V14.01,2013-10-19 19:41:00,
2013-10-19 15:45:00,46.0,43.5,29.84,West,261,0.0,3.0,91,0.03,,CLR,0.10,VWS V14.01,2013-10-19 19:45:00,
2013-10-19 15:46:00,45.5,43.3,29.86,NW,306,0.0,5.0,92,0.00,,OVC039,0.10,VWS V14.01,2013-10-19 19:46:00,
2013-10-19 15:51:00,45.5,43.0,29.86,WSW,241,6.0,10.0,91,0.00,,OVC039,0.10,VWS V14.01,2013-10-19 19:51:00,
2013-10-19 15:56:00,45.4,42.9,29.86,WSW,246,2.0,7.0,91,0.00,,OVC039,0.10,VWS V14.01,2013-10-19 19:56:00,
2013-10-19 16:00:00,45.4,42.9,29.85,NNW,343,0.0,10.0,91,0.01,,CLR,0.10,VWS V14.01,2013-10-19 20:00:00,
2013-10-19 16:01:00,45.2,42.7,29.87,West,271,0.0,7.0,91,0.00,,OVC022,0.10,VWS V14.01,2013-10-19 20:01:00,
2013-10-19 16:06:00,45.4,42.9,29.87,WSW,256,0.0,10.0,91,0.00,,OVC022,0.10,VWS V14.01,2013-10-19 20:06:00,
2013-10-19 16:11:00,45.5,43.0,29.87,WSW,253,0.0,0.0,91,0.00,,OVC022,0.10,VWS V14.01,2013-10-19 20:11:00,
2013-10-19 16:15:00,45.2,42.7,29.85,West,281,0.0,5.0,91,0.01,,CLR,0.10,VWS V14.01,2013-10-19 20:15:00,
2013-10-19 16:16:00,45.4,42.6,29.88,SW,226,0.0,6.0,90,0.00,,OVC022,0.10,VWS V14.01,2013-10-19 20:16:00,
2013-10-19 16:21:00,45.4,42.6,29.88,SW,229,0.0,6.0,90,0.00,,OVC022,0.10,VWS V14.01,2013-10-19 20:21:00,
2013-10-19 16:26:00,45.4,42.6,29.88,WSW,258,9.0,9.0,90,0.00,,OVC022,0.10,VWS V14.01,2013-10-19 20:26:00,
2013-10-19 16:30:00,45.1,42.6,29.85,WNW,284,1.0,6.0,91,0.01,,CLR,0.10,VWS V14.01,2013-10-19 20:30:00,
2013-10-19 16:31:00,45.4,42.6,29.88,West,267,0.0,10.0,90,0.00,,OVC022,0.10,VWS V14.01,2013-10-19 20:31:00,
2013-10-19 16:36:00,45.4,42.3,29.88,SW,220,0.0,10.0,89,0.00,,OVC022,0.10,VWS V14.01,2013-10-19 20:36:00,
2013-10-19 16:41:00,45.5,42.5,29.88,WNW,292,4.0,9.0,89,0.00,,OVC022,0.10,VWS V14.01,2013-10-19 20:41:00,
2013-10-19 16:45:00,45.5,43.3,29.86,SW,232,3.0,5.0,92,0.00,,CLR,0.10,VWS V14.01,2013-10-19 20:45:00,
2013-10-19 16:46:00,45.5,42.2,29.89,NNW,328,7.0,8.0,88,0.00,,OVC022,0.10,VWS V14.01,2013-10-19 20:46:00,
2013-10-19 16:51:00,45.4,42.1,29.89,WNW,291,5.0,7.0,88,0.00,,OVC022,0.10,VWS V14.01,2013-10-19 20:51:00,
2013-10-19 16:56:00,45.4,41.8,29.89,SW,236,4.0,9.0,87,0.00,,OVC022,0.10,VWS V14.01,2013-10-19 20:56:00,
2013-10-19 17:00:00,45.4,42.9,29.87,WNW,292,2.0,7.0,91,0.00,,CLR,0.10,VWS V14.01,2013-10-19 21:00:00,
2013-10-19 17:01:00,45.5,41.9,29.89,SW,219,0.0,7.0,87,0.00,,OVC045,0.10,VWS V14.01,2013-10-19 21:01:00,
2013-10-19 17:06:00,45.7,41.8,29.89,West,271,5.0,8.0,86,0.00,,OVC045,0.10,VWS V14.01,2013-10-19 21:06:00,
2013-10-19 17:11:00,45.7,41.8,29.89,West,268,2.0,8.0,86,0.00,,OVC045,0.10,VWS V14.01,2013-10-19 21:11:00,
2013-10-19 17:15:00,45.4,42.6,29.88,West,260,0.0,6.0,90,0.00,,CLR,0.10,VWS V14.01,2013-10-19 21:15:00,
2013-10-19 17:16:00,45.7,41.5,29.89,West,275,0.0,8.0,85,0.00,,OVC045,0.10,VWS V14.01,2013-10-19 21:16:00,
2013-10-19 17:21:00,45.8,41.5,29.89,NNW,337,10.0,10.0,85,0.00,,OVC045,0.10,VWS V14.01,2013-10-19 21:21:00,
2013-10-19 17:26:00,45.8,41.2,29.89,West,260,0.0,10.0,84,0.00,,OVC045,0.10,VWS V14.01,2013-10-19 21:26:00,
2013-10-19 17:30:00,45.4,42.6,29.88,WSW,258,0.0,9.0,90,0.00,,CLR,0.10,VWS V14.01,2013-10-19 21:30:00,
2013-10-19 17:31:00,45.8,41.2,29.90,West,274,0.0,5.0,84,0.00,,OVC045,0.10,VWS V14.01,2013-10-19 21:31:00,
2013-10-19 17:36:00,45.8,41.5,29.90,West,274,0.0,3.0,85,0.00,,OVC045,0.10,VWS V14.01,2013-10-19 21:36:00,
2013-10-19 17:41:00,45.8,41.5,29.90,WSW,241,0.0,5.0,85,0.00,,OVC045,0.10,VWS V14.01,2013-10-19 21:41:00,
2013-10-19 17:45:00,45.5,42.2,29.89,WSW,248,0.0,9.0,88,0.00,,CLR,0.10,VWS V14.01,2013-10-19 21:45:00,
2013-10-19 17:46:00,46.0,41.8,29.91,SW,230,0.0,5.0,85,0.00,,OVC045,0.10,VWS V14.01,2013-10-19 21:46:00,
2013-10-19 17:51:00,46.0,41.8,29.91,WSW,241,2.0,6.0,85,0.00,,OVC045,0.10,VWS V14.01,2013-10-19 21:51:00,
2013-10-19 17:56:00,45.8,41.5,29.91,West,270,0.0,6.0,85,0.00,,OVC045,0.10,VWS V14.01,2013-10-19 21:56:00,
2013-10-19 18:00:00,45.5,41.9,29.89,West,268,2.0,8.0,87,0.00,,CLR,0.10,VWS V14.01,2013-10-19 22:00:00,
2013-10-19 18:01:00,45.8,41.2,29.91,West,265,0.0,12.0,84,0.00,,OVC060,0.10,VWS V14.01,2013-10-19 22:01:00,
2013-10-19 18:06:00,45.8,41.2,29.91,West,260,0.0,10.0,84,0.00,,OVC060,0.10,VWS V14.01,2013-10-19 22:06:00,
2013-10-19 18:11:00,45.7,41.2,29.91,WSW,237,0.0,7.0,84,0.00,,OVC060,0.10,VWS V14.01,2013-10-19 22:11:00,
2013-10-19 18:15:00,45.7,41.5,29.89,SW,234,5.0,8.0,85,0.00,,CLR,0.10,VWS V14.01,2013-10-19 22:15:00,
2013-10-19 18:16:00,45.7,40.8,29.92,WSW,246,0.0,7.0,83,0.00,,OVC060,0.10,VWS V14.01,2013-10-19 22:16:00,
2013-10-19 18:21:00,45.7,41.2,29.92,West,261,4.0,6.0,84,0.00,,OVC060,0.10,VWS V14.01,2013-10-19 22:21:00,
2013-10-19 18:26:00,45.7,41.2,29.92,SW,233,2.0,5.0,84,0.00,,OVC060,0.10,VWS V14.01,2013-10-19 22:26:00,
2013-10-19 18:30:00,45.8,41.6,29.90,WNW,302,0.0,5.0,85,0.00,,CLR,0.10,VWS V14.01,2013-10-19 22:30:00,
2013-10-19 18:31:00,45.5,41.0,29.92,WSW,239,0.0,6.0,84,0.00,,OVC060,0.10,VWS V14.01,2013-10-19 22:31:00,
2013-10-19 18:36:00,45.5,41.0,29.92,SW,229,0.0,8.0,84,0.00,,OVC060,0.10,VWS V14.01,2013-10-19 22:36:00,
2013-10-19 18:42:00,45.5,41.0,29.92,West,261,0.0,10.0,84,0.00,,OVC060,0.10,VWS V14.01,2013-10-19 22:42:00,
2013-10-19 18:45:00,46.0,41.8,29.91,SW,230,1.0,5.0,85,0.00,,CLR,0.10,VWS V14.01,2013-10-19 22:45:00,
2013-10-19 18:47:00,45.5,41.0,29.92,WSW,248,0.0,6.0,84,0.00,,OVC060,0.10,VWS V14.01,2013-10-19 22:47:00,
2013-10-19 18:52:00,45.5,41.0,29.92,WSW,258,3.0,6.0,84,0.00,,OVC060,0.10,VWS V14.01,2013-10-19 22:52:00,
2013-10-19 18:57:00,45.5,41.0,29.92,South,185,0.0,4.0,84,0.00,,OVC060,0.10,VWS V14.01,2013-10-19 22:57:00,
2013-10-19 19:00:00,45.8,41.2,29.91,West,271,0.0,12.0,84,0.00,,CLR,0.10,VWS V14.01,2013-10-19 23:00:00,
2013-10-19 19:02:00,45.4,40.9,29.93,WSW,237,0.0,5.0,84,0.00,,OVC060,0.10,VWS V14.01,2013-10-19 23:02:00,
2013-10-19 19:07:00,45.2,40.7,29.93,WSW,239,0.0,7.0,84,0.00,,OVC060,0.10,VWS V14.01,2013-10-19 23:07:00,
2013-10-19 19:12:00,45.1,40.9,29.93,SW,222,3.0,7.0,85,0.00,,OVC060,0.10,VWS V14.01,2013-10-19 23:12:00,
2013-10-19 19:15:00,45.7,40.8,29.92,WSW,257,2.0,7.0,83,0.00,,CLR,0.10,VWS V14.01,2013-10-19 23:15:00,
2013-10-19 19:17:00,44.9,40.7,29.93,SW,229,0.0,3.0,85,0.00,,OVC060,0.10,VWS V14.01,2013-10-19 23:17:00,
2013-10-19 19:22:00,44.8,40.6,29.93,SW,232,0.0,3.0,85,0.00,,OVC060,0.10,VWS V14.01,2013-10-19 23:22:00,
2013-10-19 19:27:00,44.5,40.3,29.93,SSW,208,1.0,3.0,85,0.00,,OVC060,0.10,VWS V14.01,2013-10-19 23:27:00,
2013-10-19 19:30:00,45.5,41.0,29.92,SW,216,3.0,6.0,84,0.00,,CLR,0.10,VWS V14.01,2013-10-19 23:30:00,
2013-10-19 19:32:00,44.3,40.1,29.94,WSW,241,0.0,3.0,85,0.00,,OVC060,0.10,VWS V14.01,2013-10-19 23:32:00,
2013-10-19 19:37:00,44.2,40.0,29.94,SW,223,0.0,2.0,85,0.00,,OVC060,0.10,VWS V14.01,2013-10-19 23:37:00,
2013-10-19 19:42:00,43.9,40.0,29.94,SW,223,0.0,0.0,86,0.00,,OVC060,0.10,VWS V14.01,2013-10-19 23:42:00,
2013-10-19 19:45:00,45.5,41.0,29.92,SW,229,0.0,6.0,84,0.00,,CLR,0.10,VWS V14.01,2013-10-19 23:45:00,
2013-10-19 19:47:00,43.8,39.9,29.94,SW,223,0.0,0.0,86,0.00,,OVC060,0.10,VWS V14.01,2013-10-19 23:47:00,
2013-10-19 19:52:00,43.5,39.9,29.94,SW,223,0.0,0.0,87,0.00,,OVC060,0.10,VWS V14.01,2013-10-19 23:52:00,
2013-10-19 19:57:00,43.2,39.6,29.94,SW,223,0.0,0.0,87,0.00,,OVC060,0.10,VWS V14.01,2013-10-19 23:57:00,
2013-10-19 20:00:00,45.4,40.9,29.93,WSW,237,0.0,5.0,84,0.00,,CLR,0.10,VWS V14.01,2013-10-20 00:00:00,
2013-10-19 20:02:00,42.9,39.3,29.94,SW,223,0.0,0.0,87,0.00,,FEW065,0.10,VWS V14.01,2013-10-20 00:02:00,
2013-10-19 20:07:00,42.6,39.3,29.94,SW,223,0.0,0.0,88,0.00,,FEW065,0.10,VWS V14.01,2013-10-20 00:07:00,
2013-10-19 20:12:00,42.5,39.2,29.94,SW,223,0.0,0.0,88,0.00,,FEW065,0.10,VWS V14.01,2013-10-20 00:12:00,
2013-10-19 20:15:00,44.9,40.7,29.93,SW,227,0.0,5.0,85,0.00,,CLR,0.10,VWS V14.01,2013-10-20 00:15:00,
2013-10-19 20:17:00,42.2,39.2,29.95,SW,223,0.0,0.0,89,0.00,,FEW065,0.10,VWS V14.01,2013-10-20 00:17:00,
2013-10-19 20:22:00,42.1,39.1,29.95,SW,223,0.0,1.0,89,0.00,,FEW065,0.10,VWS V14.01,2013-10-20 00:22:00,
2013-10-19 20:27:00,41.9,39.2,29.95,SW,223,0.0,0.0,90,0.00,,FEW065,0.10,VWS V14.01,2013-10-20 00:27:00,
2013-10-19 20:30:00,44.5,40.3,29.94,WSW,241,0.0,3.0,85,0.00,,CLR,0.10,VWS V14.01,2013-10-20 00:30:00,
2013-10-19 20:32:00,41.9,39.2,29.96,SW,222,0.0,3.0,90,0.00,,FEW065,0.10,VWS V14.01,2013-10-20 00:32:00,
2013-10-19 20:37:00,41.9,39.2,29.96,SW,222,0.0,3.0,90,0.00,,FEW065,0.10,VWS V14.01,2013-10-20 00:37:00,
2013-10-19 20:42:00,41.8,39.1,29.96,SW,222,0.0,0.0,90,0.00,,FEW065,0.10,VWS V14.01,2013-10-20 00:42:00,
2013-10-19 20:45:00,43.8,39.9,29.94,SW,223,0.0,0.0,86,0.00,,CLR,0.10,VWS V14.01,2013-10-20 00:45:00,
2013-10-19 20:47:00,41.9,39.2,29.97,SSW,200,5.0,6.0,90,0.00,,FEW065,0.10,VWS V14.01,2013-10-20 00:47:00,
2013-10-19 20:52:00,42.1,39.4,29.97,SSW,193,0.0,7.0,90,0.00,,FEW065,0.10,VWS V14.01,2013-10-20 00:52:00,
2013-10-19 20:57:00,42.2,39.5,29.97,SW,217,0.0,5.0,90,0.00,,FEW065,0.10,VWS V14.01,2013-10-20 00:57:00,
2013-10-19 21:00:00,43.1,39.5,29.94,SW,223,0.0,0.0,87,0.00,,CLR,0.10,VWS V14.01,2013-10-20 01:00:00,
2013-10-19 21:02:00,42.1,39.4,29.97,SW,215,0.0,5.0,90,0.00,,CLR,0.10,VWS V14.01,2013-10-20 01:02:00,
2013-10-19 21:07:00,42.2,39.5,29.97,South,185,4.0,6.0,90,0.00,,CLR,0.10,VWS V14.01,2013-10-20 01:07:00,
2013-10-19 21:12:00,42.2,39.5,29.97,SW,223,0.0,8.0,90,0.00,,CLR,0.10,VWS V14.01,2013-10-20 01:12:00,
2013-10-19 21:15:00,42.3,39.0,29.95,SW,223,0.0,0.0,88,0.00,,CLR,0.10,VWS V14.01,2013-10-20 01:15:00,
2013-10-19 21:17:00,42.2,39.5,29.97,WSW,244,0.0,6.0,90,0.00,,CLR,0.10,VWS V14.01,2013-10-20 01:17:00,
2013-10-19 21:22:00,42.2,39.5,29.97,SW,217,0.0,5.0,90,0.00,,CLR,0.10,VWS V14.01,2013-10-20 01:22:00,
2013-10-19 21:27:00,42.2,39.5,29.97,SW,217,0.0,2.0,90,0.00,,CLR,0.10,VWS V14.01,2013-10-20 01:27:00,
2013-10-19 21:30:00,41.9,39.2,29.96,SW,222,0.0,3.0,90,0.00,,CLR,0.10,VWS V14.01,2013-10-20 01:30:00,
2013-10-19 21:32:00,42.1,39.4,29.97,SW,215,0.0,2.0,90,0.00,,CLR,0.10,VWS V14.01,2013-10-20 01:32:00,
2013-10-19 21:37:00,41.9,39.2,29.97,SSW,199,0.0,1.0,90,0.00,,CLR,0.10,VWS V14.01,2013-10-20 01:37:00,
2013-10-19 21:42:00,41.9,39.2,29.97,SW,233,0.0,6.0,90,0.00,,CLR,0.10,VWS V14.01,2013-10-20 01:42:00,
2013-10-19 21:45:00,41.9,39.2,29.97,SW,222,0.0,3.0,90,0.00,,CLR,0.10,VWS V14.01,2013-10-20 01:45:00,
2013-10-19 21:47:00,41.9,39.2,29.98,SSW,210,0.0,6.0,90,0.00,,CLR,0.10,VWS V14.01,2013-10-20 01:47:00,
2013-10-19 21:52:00,41.9,39.2,29.98,SSW,213,0.0,3.0,90,0.00,,CLR,0.10,VWS V14.01,2013-10-20 01:52:00,
2013-10-19 21:57:00,41.9,39.2,29.98,South,178,0.0,6.0,90,0.00,,CLR,0.10,VWS V14.01,2013-10-20 01:57:00,
2013-10-19 22:00:00,42.1,39.4,29.97,SSW,213,0.0,5.0,90,0.00,,CLR,0.10,VWS V14.01,2013-10-20 02:00:00,
2013-10-19 22:02:00,41.8,39.1,29.98,South,191,2.0,5.0,90,0.00,,CLR,0.10,VWS V14.01,2013-10-20 02:02:00,
2013-10-19 22:07:00,41.9,39.2,29.98,SSW,203,0.0,7.0,90,0.00,,CLR,0.10,VWS V14.01,2013-10-20 02:07:00,
2013-10-19 22:12:00,41.9,39.2,29.98,SW,232,1.0,5.0,90,0.00,,CLR,0.10,VWS V14.01,2013-10-20 02:12:00,
2013-10-19 22:15:00,42.2,39.5,29.97,SSW,200,6.0,6.0,90,0.00,,CLR,0.10,VWS V14.01,2013-10-20 02:15:00,
2013-10-19 22:17:00,42.1,39.4,29.98,SW,215,3.0,10.0,90,0.00,,CLR,0.10,VWS V14.01,2013-10-20 02:17:00,
2013-10-19 22:22:00,42.2,39.5,29.98,SW,219,3.0,6.0,90,0.00,,CLR,0.10,VWS V14.01,2013-10-20 02:22:00,
2013-10-19 22:27:00,42.2,39.5,29.98,SSW,202,1.0,6.0,90,0.00,,CLR,0.10,VWS V14.01,2013-10-20 02:27:00,
2013-10-19 22:30:00,42.1,39.4,29.97,SW,217,1.0,1.0,90,0.00,,CLR,0.10,VWS V14.01,2013-10-20 02:30:00,
2013-10-19 22:32:00,42.2,39.5,29.99,SW,220,0.0,7.0,90,0.00,,CLR,0.10,VWS V14.01,2013-10-20 02:32:00,
2013-10-19 22:37:00,42.2,39.5,29.99,SSW,209,3.0,4.0,90,0.00,,CLR,0.10,VWS V14.01,2013-10-20 02:37:00,
2013-10-19 22:42:00,42.2,39.5,29.99,SSW,196,0.0,5.0,90,0.00,,CLR,0.10,VWS V14.01,2013-10-20 02:42:00,
2013-10-19 22:45:00,41.9,39.2,29.98,SSW,212,0.0,6.0,90,0.00,,CLR,0.10,VWS V14.01,2013-10-20 02:45:00,
2013-10-19 22:47:00,42.3,39.6,29.99,SSW,193,5.0,6.0,90,0.00,,CLR,0.10,VWS V14.01,2013-10-20 02:47:00,
2013-10-19 22:52:00,42.3,39.6,29.99,SW,216,4.0,6.0,90,0.00,,CLR,0.10,VWS V14.01,2013-10-20 02:52:00,
2013-10-19 22:57:00,42.3,39.6,29.99,WSW,258,0.0,7.0,90,0.00,,CLR,0.10,VWS V14.01,2013-10-20 02:57:00,
2013-10-19 23:00:00,41.8,39.1,29.98,South,184,0.0,6.0,90,0.00,,CLR,0.10,VWS V14.01,2013-10-20 03:00:00,
2013-10-19 23:02:00,42.2,39.5,29.99,SW,230,1.0,6.0,90,0.00,,CLR,0.10,VWS V14.01,2013-10-20 03:02:00,
2013-10-19 23:07:00,42.2,39.5,29.99,SSW,199,0.0,6.0,90,0.00,,CLR,0.10,VWS V14.01,2013-10-20 03:07:00,
2013-10-19 23:12:00,42.2,39.5,29.99,SSW,199,0.0,3.0,90,0.00,,CLR,0.10,VWS V14.01,2013-10-20 03:12:00,
2013-10-19 23:15:00,42.1,39.4,29.98,SSW,206,8.0,8.0,90,0.00,,CLR,0.10,VWS V14.01,2013-10-20 03:15:00,
2013-10-19 23:17:00,42.1,39.4,29.99,SSW,199,0.0,3.0,90,0.00,,CLR,0.10,VWS V14.01,2013-10-20 03:17:00,
2013-10-19 23:22:00,42.1,39.4,29.99,SW,217,0.0,5.0,90,0.00,,CLR,0.10,VWS V14.01,2013-10-20 03:22:00,
2013-10-19 23:27:00,41.9,39.2,29.99,SSW,206,0.0,7.0,90,0.00,,CLR,0.10,VWS V14.01,2013-10-20 03:27:00,
2013-10-19 23:30:00,42.2,39.5,29.99,SW,220,4.0,7.0,90,0.00,,CLR,0.10,VWS V14.01,2013-10-20 03:30:00,
2013-10-19 23:32:00,41.9,39.2,29.99,SSW,206,0.0,4.0,90,0.00,,CLR,0.10,VWS V14.01,2013-10-20 03:32:00,
2013-10-19 23:37:00,41.8,39.1,29.99,SSW,206,0.0,0.0,90,0.00,,CLR,0.10,VWS V14.01,2013-10-20 03:37:00,
2013-10-19 23:42:00,41.8,39.1,29.99,SSW,208,0.0,5.0,90,0.00,,CLR,0.10,VWS V14.01,2013-10-20 03:42:00,
2013-10-19 23:45:00,42.3,39.6,29.99,SW,236,0.0,6.0,90,0.00,,CLR,0.10,VWS V14.01,2013-10-20 03:45:00,
2013-10-19 23:47:00,41.9,39.2,30.00,SW,217,0.0,12.0,90,0.00,,CLR,0.10,VWS V14.01,2013-10-20 03:47:00,
2013-10-19 23:52:00,41.8,39.1,30.00,SW,217,0.0,0.0,90,0.00,,CLR,0.10,VWS V14.01,2013-10-20 03:52:00,
2013-10-19 23:57:00,41.6,38.9,30.00,SW,223,3.0,6.0,90,0.00,,CLR,0.10,VWS V14.01,2013-10-20 03:57:00,